DAL414 KBOS-KMIA

Flight info

Callsign DAL414
Flight time 2h 53m
Altitude 34000
Route SSOXS7 SSOXS Q167 RIFLE DCT HEADI Q97 KALDA Q101 SKARP Y313 HOAGG BNFSH3
Aircraft A321/M-SDE3FGHIRWY/LB1

Departure

Time 2026-05-04 13:17
Airport Boston Logan International Airport (KBOS)

Arrival

Time 2026-05-04 16:11
Airport Miami International Airport (KMIA)
Time Latitude Longitude Altitude Speed Heading
2026-05-04 12:50 42.36293 -71.01614 25 ft 0 kts 342°
2026-05-04 13:09 42.36283 -71.01609 26 ft 4 kts 346°
2026-05-04 13:09 42.36257 -71.01606 27 ft 4 kts 17°
2026-05-04 13:09 42.36243 -71.01617 27 ft 3 kts 102°
2026-05-04 13:10 42.36243 -71.01622 27 ft 0 kts 109°
2026-05-04 13:12 42.36236 -71.01589 30 ft 9 kts 105°
2026-05-04 13:12 42.36228 -71.01501 25 ft 9 kts 70°
2026-05-04 13:12 42.36291 -71.01451 24 ft 14 kts 20°
2026-05-04 13:13 42.36376 -71.01410 23 ft 12 kts 19°
2026-05-04 13:13 42.36442 -71.01378 24 ft 9 kts 21°
2026-05-04 13:13 42.36515 -71.01335 24 ft 16 kts 24°
2026-05-04 13:13 42.36617 -71.01276 29 ft 14 kts 18°
2026-05-04 13:14 42.36724 -71.01242 27 ft 20 kts
2026-05-04 13:14 42.36847 -71.01257 24 ft 15 kts 28°
2026-05-04 13:14 42.36937 -71.01161 26 ft 21 kts 41°
2026-05-04 13:14 42.37071 -71.01053 25 ft 23 kts 25°
2026-05-04 13:15 42.37208 -71.00964 23 ft 21 kts 24°
2026-05-04 13:15 42.37322 -71.00894 22 ft 17 kts 20°
2026-05-04 13:15 42.37425 -71.00844 22 ft 15 kts 20°
2026-05-04 13:15 42.37531 -71.00791 25 ft 15 kts 19°
2026-05-04 13:16 42.37615 -71.00732 25 ft 12 kts 61°
2026-05-04 13:16 42.37608 -71.00630 28 ft 11 kts 109°
2026-05-04 13:16 42.37540 -71.00591 28 ft 20 kts 191°
2026-05-04 13:16 42.37203 -71.00756 21 ft 93 kts 200°
2026-05-04 13:17 42.36364 -71.01165 35 ft 160 kts 197°
2026-05-04 13:17 42.35218 -71.01689 521 ft 180 kts 200°
2026-05-04 13:17 42.33958 -71.01864 1473 ft 188 kts 181°
2026-05-04 13:17 42.32682 -71.01202 2250 ft 215 kts 156°
2026-05-04 13:18 42.31522 -70.99717 2538 ft 242 kts 132°
2026-05-04 13:18 42.30854 -70.97506 2652 ft 274 kts 95°
2026-05-04 13:18 42.31134 -70.94886 3062 ft 291 kts 71°
2026-05-04 13:18 42.31747 -70.92283 3717 ft 296 kts 75°
2026-05-04 13:19 42.32203 -70.89567 4523 ft 297 kts 79°
2026-05-04 13:19 42.32570 -70.86815 5314 ft 298 kts 80°
2026-05-04 13:19 42.32913 -70.84021 5940 ft 307 kts 81°
2026-05-04 13:19 42.33014 -70.81115 6558 ft 313 kts 96°
2026-05-04 13:20 42.32607 -70.78231 7230 ft 314 kts 111°
2026-05-04 13:20 42.31766 -70.75518 7938 ft 314 kts 118°
2026-05-04 13:20 42.30844 -70.72848 8726 ft 312 kts 120°
2026-05-04 13:20 42.29687 -70.70397 9479 ft 308 kts 135°
2026-05-04 13:21 42.28147 -70.68423 10132 ft 304 kts 150°
2026-05-04 13:21 42.26286 -70.66972 10343 ft 316 kts 164°
2026-05-04 13:21 42.24154 -70.65986 10485 ft 334 kts 168°
2026-05-04 13:21 42.21911 -70.64993 10612 ft 354 kts 167°
2026-05-04 13:22 42.19528 -70.63923 10942 ft 366 kts 167°
2026-05-04 13:22 42.17093 -70.62845 11502 ft 369 kts 170°
2026-05-04 13:22 42.14576 -70.62260 12063 ft 366 kts 182°
2026-05-04 13:22 42.12045 -70.62389 12634 ft 363 kts 194°
2026-05-04 13:23 42.09607 -70.63199 13223 ft 361 kts 204°
2026-05-04 13:23 42.07204 -70.64275 13660 ft 370 kts 204°
2026-05-04 13:23 42.04711 -70.65391 13799 ft 385 kts 204°
2026-05-04 13:23 42.02142 -70.66532 14112 ft 391 kts 203°
2026-05-04 13:24 41.99538 -70.67678 14531 ft 396 kts 203°
2026-05-04 13:24 41.96944 -70.68815 14987 ft 398 kts 203°
2026-05-04 13:24 41.94308 -70.69969 15539 ft 399 kts 203°
2026-05-04 13:25 41.88998 -70.72291 16509 ft 404 kts 203°
2026-05-04 13:25 41.86319 -70.73468 16986 ft 406 kts 203°
2026-05-04 13:25 41.83654 -70.74750 17446 ft 406 kts 209°
2026-05-04 13:25 41.81168 -70.76509 17904 ft 405 kts 214°
2026-05-04 13:26 41.78704 -70.78367 18339 ft 408 kts 214°
2026-05-04 13:26 41.76224 -70.80233 18757 ft 410 kts 214°
2026-05-04 13:26 41.73727 -70.82105 19161 ft 413 kts 213°
2026-05-04 13:26 41.71248 -70.83962 19569 ft 415 kts 213°
2026-05-04 13:27 41.68725 -70.85853 19971 ft 417 kts 214°
2026-05-04 13:27 41.66189 -70.87755 20363 ft 419 kts 213°
2026-05-04 13:27 41.63637 -70.89667 20741 ft 422 kts 213°
2026-05-04 13:27 41.61070 -70.91590 21108 ft 424 kts 213°
2026-05-04 13:28 41.58484 -70.93519 21490 ft 427 kts 213°
2026-05-04 13:28 41.55995 -70.95653 21853 ft 425 kts 222°
2026-05-04 13:28 41.53838 -70.98319 22227 ft 422 kts 232°
2026-05-04 13:28 41.52081 -71.01440 22595 ft 420 kts 240°
2026-05-04 13:29 41.50472 -71.04709 22968 ft 423 kts 239°
2026-05-04 13:29 41.48843 -71.07986 23332 ft 425 kts 239°
2026-05-04 13:29 41.47198 -71.11272 23655 ft 427 kts 239°
2026-05-04 13:29 41.45561 -71.14523 23956 ft 429 kts 239°
2026-05-04 13:30 41.43892 -71.17826 24269 ft 430 kts 239°
2026-05-04 13:30 41.42219 -71.21136 24598 ft 431 kts 239°
2026-05-04 13:30 41.40542 -71.24455 24912 ft 432 kts 239°
2026-05-04 13:30 41.38863 -71.27783 25227 ft 433 kts 239°
2026-05-04 13:31 41.37181 -71.31120 25524 ft 434 kts 239°
2026-05-04 13:31 41.35498 -71.34461 25801 ft 435 kts 239°
2026-05-04 13:31 41.33809 -71.37815 26063 ft 436 kts 239°
2026-05-04 13:31 41.32115 -71.41173 26307 ft 437 kts 239°
2026-05-04 13:32 41.30418 -71.44533 26571 ft 437 kts 239°
2026-05-04 13:32 41.28748 -71.47836 26887 ft 436 kts 239°
2026-05-04 13:32 41.27058 -71.51172 27222 ft 434 kts 239°
2026-05-04 13:32 41.25369 -71.54493 27544 ft 433 kts 239°
2026-05-04 13:33 41.23682 -71.57803 27825 ft 433 kts 239°
2026-05-04 13:33 41.21992 -71.61114 28093 ft 433 kts 239°
2026-05-04 13:33 41.20304 -71.64424 28387 ft 432 kts 239°
2026-05-04 13:33 41.18619 -71.67726 28694 ft 431 kts 239°
2026-05-04 13:34 41.16939 -71.71017 28994 ft 430 kts 239°
2026-05-04 13:34 41.15264 -71.74299 29316 ft 429 kts 239°
2026-05-04 13:34 41.13596 -71.77571 29626 ft 427 kts 239°
2026-05-04 13:34 41.11964 -71.80783 29977 ft 424 kts 239°
2026-05-04 13:35 41.10322 -71.84023 30264 ft 423 kts 239°
2026-05-04 13:35 41.07046 -71.90471 30754 ft 421 kts 239°
2026-05-04 13:35 41.05404 -71.93689 30959 ft 422 kts 239°
2026-05-04 13:36 41.03777 -71.96925 31150 ft 422 kts 242°
2026-05-04 13:36 41.02441 -72.00365 31371 ft 419 kts 247°
2026-05-04 13:36 41.01214 -72.03867 31591 ft 419 kts 247°
2026-05-04 13:36 40.99985 -72.07364 31838 ft 419 kts 247°
2026-05-04 13:37 40.98755 -72.10857 32056 ft 418 kts 247°
2026-05-04 13:37 40.97527 -72.14338 32317 ft 417 kts 247°
2026-05-04 13:37 40.96314 -72.17764 32560 ft 416 kts 246°
2026-05-04 13:37 40.95483 -72.20105 32728 ft 416 kts 246°
2026-05-04 13:38 40.93854 -72.24680 33033 ft 415 kts 246°
2026-05-04 13:38 40.92616 -72.28138 33229 ft 416 kts 245°
2026-05-04 13:38 40.91105 -72.31412 33397 ft 420 kts 236°
2026-05-04 13:38 40.89167 -72.34325 33598 ft 424 kts 228°
2026-05-04 13:39 40.87064 -72.37061 33791 ft 424 kts 228°
2026-05-04 13:39 40.84964 -72.39799 33983 ft 425 kts 229°
2026-05-04 13:39 40.82882 -72.42512 34025 ft 415 kts 228°
2026-05-04 13:40 40.78707 -72.47658 34044 ft 410 kts 224°
2026-05-04 13:40 40.74339 -72.52403 34044 ft 409 kts 224°
2026-05-04 13:41 40.69951 -72.57175 34042 ft 408 kts 226°
2026-05-04 13:41 40.66200 -72.62686 34049 ft 405 kts 234°
2026-05-04 13:42 40.60824 -72.71286 34046 ft 405 kts 234°
2026-05-04 13:42 40.57234 -72.77003 34046 ft 405 kts 234°
2026-05-04 13:43 40.53645 -72.82717 34051 ft 405 kts 234°
2026-05-04 13:43 40.50078 -72.88383 34051 ft 405 kts 233°
2026-05-04 13:44 40.46485 -72.94078 34032 ft 405 kts 233°
2026-05-04 13:44 40.42894 -72.99771 34031 ft 405 kts 234°
2026-05-04 13:45 40.39286 -73.05465 34031 ft 406 kts 233°
2026-05-04 13:45 40.35668 -73.11161 34025 ft 407 kts 233°
2026-05-04 13:46 40.32048 -73.16866 33999 ft 407 kts 233°
2026-05-04 13:46 40.28388 -73.22624 34052 ft 416 kts 233°
2026-05-04 13:47 40.24695 -73.28414 34054 ft 418 kts 233°
2026-05-04 13:47 40.20956 -73.34263 34066 ft 421 kts 233°
2026-05-04 13:48 40.17193 -73.40144 34050 ft 422 kts 233°
2026-05-04 13:48 40.13425 -73.46026 34038 ft 422 kts 233°
2026-05-04 13:49 40.09661 -73.51893 34043 ft 421 kts 233°
2026-05-04 13:49 40.05886 -73.57745 34056 ft 421 kts 233°
2026-05-04 13:50 40.02135 -73.63549 34058 ft 421 kts 233°
2026-05-04 13:50 39.98359 -73.69396 34064 ft 422 kts 233°
2026-05-04 13:51 39.94066 -73.74670 34027 ft 430 kts 221°
2026-05-04 13:51 39.89217 -73.79241 34038 ft 431 kts 220°
2026-05-04 13:52 39.81944 -73.86112 34046 ft 431 kts 221°
2026-05-04 13:53 39.77123 -73.90663 34036 ft 431 kts 221°
2026-05-04 13:53 39.72269 -73.95228 34056 ft 430 kts 221°
2026-05-04 13:54 39.64975 -74.02068 34037 ft 433 kts 221°
2026-05-04 13:55 39.57627 -74.08952 34043 ft 436 kts 221°
2026-05-04 13:55 39.50263 -74.15814 34048 ft 438 kts 220°
2026-05-04 13:56 39.45290 -74.20374 34055 ft 438 kts 220°
2026-05-04 13:57 39.37803 -74.27193 34049 ft 439 kts 220°
2026-05-04 13:58 39.27864 -74.36252 34067 ft 439 kts 220°
2026-05-04 13:58 39.20375 -74.43074 34063 ft 440 kts 220°
2026-05-04 13:59 39.15368 -74.47617 34055 ft 440 kts 220°
2026-05-04 14:00 39.07841 -74.54407 34074 ft 440 kts 220°
2026-05-04 14:00 39.00353 -74.61171 34078 ft 440 kts 220°
2026-05-04 14:01 38.95331 -74.65685 34070 ft 440 kts 220°
2026-05-04 14:02 38.87805 -74.72454 34080 ft 440 kts 220°
2026-05-04 14:02 38.82786 -74.76962 34085 ft 440 kts 220°
2026-05-04 14:03 38.77763 -74.81453 34065 ft 440 kts 220°
2026-05-04 14:03 38.72782 -74.85899 34093 ft 439 kts 220°
2026-05-04 14:04 38.65271 -74.92600 34102 ft 438 kts 220°
2026-05-04 14:04 38.60263 -74.97053 34082 ft 438 kts 220°
2026-05-04 14:05 38.52755 -75.03709 34090 ft 437 kts 220°
2026-05-04 14:06 38.47787 -75.08102 34090 ft 438 kts 220°
2026-05-04 14:06 38.42771 -75.12538 34089 ft 439 kts 220°
2026-05-04 14:07 38.37748 -75.16980 34065 ft 439 kts 220°
2026-05-04 14:07 38.32724 -75.21410 34086 ft 439 kts 220°
2026-05-04 14:08 38.27700 -75.25827 34090 ft 439 kts 220°
2026-05-04 14:08 38.22690 -75.30178 34094 ft 439 kts 219°
2026-05-04 14:09 38.14950 -75.36451 34072 ft 440 kts 218°
2026-05-04 14:10 38.07212 -75.42680 34087 ft 439 kts 218°
2026-05-04 14:10 38.02103 -75.46920 34082 ft 439 kts 220°
2026-05-04 14:11 37.97094 -75.51333 34059 ft 438 kts 221°
2026-05-04 14:11 37.89626 -75.57936 34081 ft 438 kts 220°
2026-05-04 14:12 37.84080 -75.61342 34079 ft 454 kts 201°
2026-05-04 14:12 37.77675 -75.61982 34081 ft 473 kts 181°
2026-05-04 14:13 37.74398 -75.61621 34055 ft 473 kts 181°
2026-05-04 14:13 37.68959 -75.61202 34065 ft 467 kts 189°
2026-05-04 14:14 37.62624 -75.62311 34077 ft 458 kts 197°
2026-05-04 14:14 37.52174 -75.64583 34085 ft 459 kts 196°
2026-05-04 14:15 37.40648 -75.67049 34098 ft 459 kts 196°
2026-05-04 14:16 37.31210 -75.69073 34060 ft 459 kts 196°
2026-05-04 14:17 37.21784 -75.71097 34105 ft 458 kts 196°
2026-05-04 14:18 37.12371 -75.73118 34114 ft 457 kts 196°
2026-05-04 14:19 37.00650 -75.78070 34110 ft 439 kts 215°
2026-05-04 14:19 36.95342 -75.81763 34095 ft 440 kts 215°
2026-05-04 14:20 36.89975 -75.85482 34093 ft 442 kts 215°
2026-05-04 14:20 36.84600 -75.89203 34067 ft 442 kts 215°
2026-05-04 14:21 36.76529 -75.94768 34075 ft 442 kts 215°
2026-05-04 14:21 36.71156 -75.98479 34088 ft 441 kts 215°
2026-05-04 14:22 36.65816 -76.02159 34116 ft 442 kts 214°
2026-05-04 14:22 36.60442 -76.05846 34107 ft 440 kts 214°
2026-05-04 14:23 36.52401 -76.11349 34130 ft 439 kts 214°
2026-05-04 14:24 36.47055 -76.15011 34124 ft 439 kts 214°
2026-05-04 14:24 36.41699 -76.18676 34076 ft 440 kts 215°
2026-05-04 14:25 36.36384 -76.22302 34110 ft 438 kts 215°
2026-05-04 14:25 36.28369 -76.27745 34127 ft 437 kts 215°
2026-05-04 14:26 36.23036 -76.31371 34130 ft 437 kts 215°
2026-05-04 14:26 36.17708 -76.34987 34119 ft 436 kts 215°
2026-05-04 14:27 36.12392 -76.38586 34152 ft 435 kts 215°
2026-05-04 14:27 36.07125 -76.42148 34154 ft 434 kts 215°
2026-05-04 14:28 36.01829 -76.45730 34157 ft 434 kts 215°
2026-05-04 14:28 35.96535 -76.49301 34100 ft 433 kts 216°
2026-05-04 14:29 35.85916 -76.56346 34128 ft 435 kts 215°
2026-05-04 14:30 35.80529 -76.59640 34130 ft 436 kts 214°
2026-05-04 14:31 35.72373 -76.64581 34107 ft 435 kts 215°
2026-05-04 14:32 35.61533 -76.71262 34125 ft 436 kts 216°
2026-05-04 14:32 35.56145 -76.74578 34134 ft 436 kts 215°
2026-05-04 14:33 35.50712 -76.77903 34081 ft 437 kts 216°
2026-05-04 14:33 35.45240 -76.81242 34136 ft 440 kts 215°
2026-05-04 14:34 35.39752 -76.84584 34144 ft 441 kts 215°
2026-05-04 14:34 35.34263 -76.87928 34150 ft 441 kts 216°
2026-05-04 14:35 35.28770 -76.91277 34141 ft 441 kts 216°
2026-05-04 14:35 35.23308 -76.94606 34143 ft 441 kts 216°
2026-05-04 14:36 35.17835 -76.98006 34140 ft 441 kts 216°
2026-05-04 14:36 35.12388 -77.01450 34151 ft 441 kts 216°
2026-05-04 14:37 35.06933 -77.04883 34154 ft 441 kts 216°
2026-05-04 14:37 35.01470 -77.08297 34131 ft 441 kts 216°
2026-05-04 14:38 34.96033 -77.11681 34144 ft 442 kts 216°
2026-05-04 14:38 34.90556 -77.15086 34144 ft 442 kts 216°
2026-05-04 14:39 34.85079 -77.18494 34155 ft 442 kts 216°
2026-05-04 14:39 34.79600 -77.21900 34136 ft 443 kts 216°
2026-05-04 14:40 34.71359 -77.27012 34124 ft 444 kts 215°
2026-05-04 14:40 34.65894 -77.30386 34132 ft 444 kts 215°
2026-05-04 14:41 34.60390 -77.33783 34132 ft 444 kts 215°
2026-05-04 14:42 34.49302 -77.40452 34127 ft 452 kts 208°
2026-05-04 14:42 34.46246 -77.41506 34123 ft 463 kts 199°
2026-05-04 14:42 34.43055 -77.42142 34136 ft 465 kts 197°
2026-05-04 14:43 34.36659 -77.43384 34137 ft 466 kts 197°
2026-05-04 14:43 34.30255 -77.44632 34133 ft 467 kts 197°
2026-05-04 14:44 34.23871 -77.45880 34141 ft 468 kts 197°
2026-05-04 14:44 34.17438 -77.47134 34147 ft 468 kts 197°
2026-05-04 14:45 34.11003 -77.48388 34153 ft 468 kts 197°
2026-05-04 14:45 34.04567 -77.49638 34130 ft 468 kts 197°
2026-05-04 14:46 33.98131 -77.50882 34148 ft 468 kts 197°
2026-05-04 14:46 33.91694 -77.52125 34158 ft 468 kts 197°
2026-05-04 14:47 33.85305 -77.53361 34162 ft 468 kts 197°
2026-05-04 14:47 33.78875 -77.54612 34157 ft 468 kts 197°
2026-05-04 14:48 33.72448 -77.55851 34168 ft 468 kts 197°
2026-05-04 14:48 33.66022 -77.57085 34178 ft 467 kts 197°
2026-05-04 14:49 33.59600 -77.58322 34179 ft 467 kts 197°
2026-05-04 14:49 33.53436 -77.60233 34159 ft 459 kts 204°
2026-05-04 14:50 33.47317 -77.62381 34183 ft 458 kts 204°
2026-05-04 14:50 33.41207 -77.64527 34187 ft 457 kts 204°
2026-05-04 14:51 33.35104 -77.66661 34184 ft 457 kts 203°
2026-05-04 14:51 33.29003 -77.68786 34163 ft 456 kts 203°
2026-05-04 14:52 33.22907 -77.70911 34173 ft 456 kts 203°
2026-05-04 14:52 33.16856 -77.73018 34182 ft 456 kts 203°
2026-05-04 14:53 33.10763 -77.75128 34183 ft 456 kts 203°
2026-05-04 14:53 33.04673 -77.77237 34161 ft 455 kts 203°
2026-05-04 14:54 32.98596 -77.79346 34173 ft 455 kts 203°
2026-05-04 14:54 32.92519 -77.81451 34182 ft 455 kts 203°
2026-05-04 14:55 32.86482 -77.83526 34190 ft 454 kts 203°
2026-05-04 14:55 32.80409 -77.85622 34189 ft 454 kts 203°
2026-05-04 14:56 32.74338 -77.87710 34191 ft 454 kts 203°
2026-05-04 14:56 32.68266 -77.89791 34189 ft 454 kts 203°
2026-05-04 14:57 32.62185 -77.91841 34197 ft 455 kts 202°
2026-05-04 14:57 32.56079 -77.93803 34167 ft 455 kts 202°
2026-05-04 14:58 32.49977 -77.95755 34192 ft 454 kts 202°
2026-05-04 14:58 32.43932 -77.97709 34203 ft 453 kts 202°
2026-05-04 14:59 32.37862 -77.99674 34206 ft 452 kts 202°
2026-05-04 15:00 32.28774 -78.02612 34182 ft 451 kts 202°
2026-05-04 15:00 32.22727 -78.04561 34195 ft 450 kts 202°
2026-05-04 15:01 32.13660 -78.07474 34201 ft 450 kts 202°
2026-05-04 15:01 32.07662 -78.09400 34201 ft 450 kts 202°
2026-05-04 15:02 32.01623 -78.11342 34167 ft 450 kts 201°
2026-05-04 15:02 31.95584 -78.13267 34181 ft 449 kts 201°
2026-05-04 15:03 31.89549 -78.15196 34190 ft 449 kts 201°
2026-05-04 15:03 31.83515 -78.17123 34190 ft 449 kts 201°
2026-05-04 15:04 31.77484 -78.19052 34174 ft 449 kts 201°
2026-05-04 15:04 31.71454 -78.20976 34185 ft 449 kts 201°
2026-05-04 15:05 31.65464 -78.22875 34188 ft 449 kts 201°
2026-05-04 15:05 31.59430 -78.24780 34189 ft 449 kts 201°
2026-05-04 15:06 31.53400 -78.26698 34196 ft 449 kts 201°
2026-05-04 15:07 31.44358 -78.29574 34169 ft 449 kts 201°
2026-05-04 15:07 31.38361 -78.31581 34178 ft 448 kts 202°
2026-05-04 15:08 31.32416 -78.33608 34181 ft 448 kts 202°
2026-05-04 15:08 31.26426 -78.35623 34159 ft 448 kts 202°
2026-05-04 15:09 31.20427 -78.37619 34169 ft 448 kts 202°
2026-05-04 15:09 31.14426 -78.39616 34176 ft 448 kts 202°
2026-05-04 15:10 31.05425 -78.42615 34183 ft 448 kts 202°
2026-05-04 15:11 30.96464 -78.45602 34159 ft 449 kts 202°
2026-05-04 15:11 30.90461 -78.47591 34160 ft 449 kts 202°
2026-05-04 15:12 30.84452 -78.49580 34167 ft 449 kts 202°
2026-05-04 15:12 30.78439 -78.51565 34169 ft 449 kts 202°
2026-05-04 15:13 30.72425 -78.53550 34133 ft 449 kts 202°
2026-05-04 15:13 30.66444 -78.55517 34142 ft 450 kts 202°
2026-05-04 15:14 30.60418 -78.57503 34149 ft 450 kts 202°
2026-05-04 15:14 30.54391 -78.59503 34158 ft 451 kts 202°
2026-05-04 15:15 30.48357 -78.61488 34165 ft 451 kts 202°
2026-05-04 15:15 30.42319 -78.63458 34147 ft 451 kts 203°
2026-05-04 15:16 30.33297 -78.66411 34158 ft 451 kts 203°
2026-05-04 15:17 30.24229 -78.69376 34169 ft 451 kts 203°
2026-05-04 15:17 30.15153 -78.72341 34171 ft 452 kts 203°
2026-05-04 15:18 30.09098 -78.74325 34161 ft 452 kts 203°
2026-05-04 15:19 30.00046 -78.77268 34169 ft 453 kts 203°
2026-05-04 15:19 29.90946 -78.80220 34119 ft 453 kts 204°
2026-05-04 15:20 29.84874 -78.82193 34133 ft 454 kts 204°
2026-05-04 15:20 29.78777 -78.84132 34135 ft 458 kts 200°
2026-05-04 15:21 29.72421 -78.85097 34141 ft 465 kts 195°
2026-05-04 15:22 29.62769 -78.86390 34113 ft 466 kts 195°
2026-05-04 15:22 29.53057 -78.87708 34147 ft 469 kts 195°
2026-05-04 15:23 29.46565 -78.88572 34153 ft 470 kts 195°
2026-05-04 15:23 29.40115 -78.89434 34159 ft 470 kts 195°
2026-05-04 15:24 29.27123 -78.91182 34127 ft 471 kts 195°
2026-05-04 15:25 29.20617 -78.92049 34129 ft 471 kts 195°
2026-05-04 15:26 29.10841 -78.93354 34136 ft 472 kts 195°
2026-05-04 15:26 29.01102 -78.94663 34136 ft 473 kts 196°
2026-05-04 15:27 28.91298 -78.95961 34147 ft 473 kts 195°
2026-05-04 15:28 28.81500 -78.97261 34146 ft 472 kts 196°
2026-05-04 15:29 28.71713 -78.98560 34126 ft 472 kts 195°
2026-05-04 15:30 28.48954 -79.01563 34106 ft 471 kts 195°
2026-05-04 15:31 28.39201 -79.02850 34124 ft 470 kts 195°
2026-05-04 15:32 28.29798 -79.05166 34122 ft 455 kts 207°
2026-05-04 15:32 28.23830 -79.07403 34120 ft 455 kts 207°
2026-05-04 15:34 28.08792 -79.12998 34107 ft 455 kts 206°
2026-05-04 15:34 27.99775 -79.16351 34113 ft 455 kts 206°
2026-05-04 15:35 27.90759 -79.19698 34080 ft 454 kts 206°
2026-05-04 15:36 27.81791 -79.23020 34092 ft 454 kts 206°
2026-05-04 15:36 27.75781 -79.25235 34101 ft 454 kts 206°
2026-05-04 15:37 27.69774 -79.27456 34104 ft 454 kts 206°
2026-05-04 15:37 27.63768 -79.29676 34060 ft 454 kts 206°
2026-05-04 15:38 27.57759 -79.31888 34075 ft 454 kts 206°
2026-05-04 15:38 27.51747 -79.34097 34086 ft 454 kts 206°
2026-05-04 15:39 27.45823 -79.36270 34092 ft 441 kts 206°
2026-05-04 15:40 27.37176 -79.39440 34090 ft 433 kts 206°
2026-05-04 15:40 27.31448 -79.41554 34087 ft 433 kts 206°
2026-05-04 15:41 27.25709 -79.43661 33760 ft 435 kts 206°
2026-05-04 15:41 27.22832 -79.44715 33497 ft 435 kts 206°
2026-05-04 15:41 27.19950 -79.45770 33239 ft 436 kts 206°
2026-05-04 15:41 27.17057 -79.46828 32394 ft 441 kts 206°
2026-05-04 15:42 27.14163 -79.47889 31538 ft 445 kts 206°
2026-05-04 15:42 27.11205 -79.48971 30642 ft 450 kts 206°
2026-05-04 15:42 27.08208 -79.50068 29565 ft 456 kts 206°
2026-05-04 15:42 27.05203 -79.51163 28549 ft 451 kts 205°
2026-05-04 15:43 27.02236 -79.52238 27478 ft 446 kts 205°
2026-05-04 15:43 26.99286 -79.53307 26377 ft 444 kts 205°
2026-05-04 15:43 26.97353 -79.54006 25946 ft 436 kts 205°
2026-05-04 15:43 26.94511 -79.55029 25304 ft 424 kts 205°
2026-05-04 15:44 26.91739 -79.56033 24636 ft 414 kts 205°
2026-05-04 15:44 26.89010 -79.57025 23992 ft 413 kts 205°
2026-05-04 15:44 26.85395 -79.58347 23074 ft 412 kts 205°
2026-05-04 15:44 26.82680 -79.59334 22468 ft 408 kts 204°
2026-05-04 15:45 26.79988 -79.60305 21854 ft 405 kts 204°
2026-05-04 15:45 26.78184 -79.60954 21439 ft 402 kts 204°
2026-05-04 15:45 26.75574 -79.61891 20892 ft 398 kts 204°
2026-05-04 15:45 26.72951 -79.62832 20327 ft 394 kts 204°
2026-05-04 15:46 26.70357 -79.63762 19899 ft 387 kts 204°
2026-05-04 15:46 26.67847 -79.64658 19758 ft 372 kts 204°
2026-05-04 15:46 26.65407 -79.65528 19425 ft 365 kts 204°
2026-05-04 15:46 26.63012 -79.66389 19183 ft 360 kts 205°
2026-05-04 15:47 26.60636 -79.67246 18956 ft 358 kts 204°
2026-05-04 15:47 26.58265 -79.68091 18618 ft 357 kts 204°
2026-05-04 15:47 26.55903 -79.68921 18121 ft 355 kts 204°
2026-05-04 15:47 26.53551 -79.69739 17580 ft 354 kts 204°
2026-05-04 15:48 26.51238 -79.70544 17083 ft 352 kts 204°
2026-05-04 15:48 26.48912 -79.71355 16612 ft 349 kts 204°
2026-05-04 15:48 26.44785 -79.73809 15812 ft 327 kts 226°
2026-05-04 15:49 26.43207 -79.75601 15608 ft 323 kts 232°
2026-05-04 15:49 26.41698 -79.77447 15375 ft 322 kts 232°
2026-05-04 15:49 26.40187 -79.79283 15139 ft 321 kts 232°
2026-05-04 15:49 26.38682 -79.81113 14903 ft 320 kts 233°
2026-05-04 15:50 26.37376 -79.83098 14673 ft 317 kts 239°
2026-05-04 15:50 26.36133 -79.85092 14488 ft 308 kts 239°
2026-05-04 15:50 26.34932 -79.87008 14369 ft 296 kts 239°
2026-05-04 15:50 26.33775 -79.88849 14236 ft 285 kts 239°
2026-05-04 15:51 26.32666 -79.90616 14050 ft 278 kts 239°
2026-05-04 15:51 26.31562 -79.92381 13955 ft 278 kts 239°
2026-05-04 15:51 26.30461 -79.94146 13795 ft 277 kts 239°
2026-05-04 15:51 26.29362 -79.95909 13614 ft 277 kts 239°
2026-05-04 15:52 26.28262 -79.97668 13441 ft 277 kts 239°
2026-05-04 15:52 26.27160 -79.99426 13267 ft 277 kts 239°
2026-05-04 15:52 26.25908 -80.01067 13096 ft 282 kts 226°
2026-05-04 15:52 26.24248 -80.02264 12918 ft 290 kts 209°
2026-05-04 15:53 26.22290 -80.02896 12733 ft 296 kts 197°
2026-05-04 15:53 26.20272 -80.03346 12543 ft 295 kts 198°
2026-05-04 15:53 26.18267 -80.03797 12364 ft 294 kts 198°
2026-05-04 15:53 26.16294 -80.04245 12189 ft 293 kts 198°
2026-05-04 15:54 26.14297 -80.04701 11996 ft 293 kts 198°
2026-05-04 15:54 26.12302 -80.05158 11816 ft 292 kts 198°
2026-05-04 15:54 26.10311 -80.05614 11636 ft 292 kts 198°
2026-05-04 15:54 26.08322 -80.06070 11454 ft 292 kts 198°
2026-05-04 15:55 26.06336 -80.06530 11274 ft 291 kts 198°
2026-05-04 15:55 26.04361 -80.07022 11093 ft 290 kts 198°
2026-05-04 15:55 26.02395 -80.07535 10915 ft 290 kts 199°
2026-05-04 15:55 26.00436 -80.08054 10734 ft 289 kts 198°
2026-05-04 15:56 25.98478 -80.08572 10566 ft 289 kts 198°
2026-05-04 15:56 25.96520 -80.09086 10384 ft 289 kts 198°
2026-05-04 15:56 25.94561 -80.09597 10215 ft 289 kts 198°
2026-05-04 15:56 25.92638 -80.10126 10032 ft 287 kts 202°
2026-05-04 15:57 25.90840 -80.11024 9842 ft 282 kts 212°
2026-05-04 15:57 25.89105 -80.12039 9661 ft 282 kts 212°
2026-05-04 15:57 25.87370 -80.13043 9490 ft 281 kts 212°
2026-05-04 15:57 25.85636 -80.14041 9318 ft 280 kts 211°
2026-05-04 15:58 25.83905 -80.15034 9142 ft 280 kts 211°
2026-05-04 15:58 25.82177 -80.16028 8968 ft 279 kts 211°
2026-05-04 15:58 25.80453 -80.17021 8796 ft 279 kts 211°
2026-05-04 15:58 25.78730 -80.18016 8620 ft 279 kts 211°
2026-05-04 15:59 25.77009 -80.19012 8446 ft 279 kts 211°
2026-05-04 15:59 25.75289 -80.20007 8274 ft 279 kts 211°
2026-05-04 15:59 25.73734 -80.21204 8102 ft 274 kts 226°
2026-05-04 15:59 25.72556 -80.22837 7899 ft 271 kts 242°
2026-05-04 16:00 25.71852 -80.24751 7586 ft 268 kts 258°
2026-05-04 16:00 25.71444 -80.26766 7306 ft 268 kts 258°
2026-05-04 16:00 25.71205 -80.28798 7026 ft 265 kts 268°
2026-05-04 16:00 25.71114 -80.30826 6742 ft 262 kts 268°
2026-05-04 16:01 25.71020 -80.32820 6476 ft 255 kts 268°
2026-05-04 16:01 25.70925 -80.34756 6212 ft 248 kts 268°
2026-05-04 16:01 25.70849 -80.36670 5861 ft 248 kts 268°
2026-05-04 16:01 25.70771 -80.38568 5595 ft 244 kts 269°
2026-05-04 16:02 25.70676 -80.40428 5359 ft 239 kts 267°
2026-05-04 16:02 25.70562 -80.42246 5143 ft 233 kts 268°
2026-05-04 16:02 25.70310 -80.45707 4893 ft 220 kts 267°
2026-05-04 16:03 25.70178 -80.47382 4794 ft 218 kts 266°
2026-05-04 16:03 25.70044 -80.49056 4731 ft 218 kts 266°
2026-05-04 16:03 25.69909 -80.50718 4637 ft 217 kts 266°
2026-05-04 16:03 25.69771 -80.52389 4580 ft 217 kts 266°
2026-05-04 16:04 25.69785 -80.54060 4502 ft 218 kts 283°
2026-05-04 16:04 25.71694 -80.56460 4302 ft 216 kts 339°
2026-05-04 16:04 25.73161 -80.56781 4249 ft 214 kts 358°
2026-05-04 16:05 25.74618 -80.56558 4204 ft 212 kts 16°
2026-05-04 16:05 25.75935 -80.55826 4098 ft 214 kts 34°
2026-05-04 16:05 25.77586 -80.53187 3645 ft 209 kts 74°
2026-05-04 16:06 25.77751 -80.51619 3443 ft 205 kts 84°
2026-05-04 16:06 25.77931 -80.47457 2915 ft 201 kts 84°
2026-05-04 16:07 25.78019 -80.45410 2514 ft 200 kts 84°
2026-05-04 16:07 25.78202 -80.41065 1760 ft 166 kts 83°
2026-05-04 16:08 25.78255 -80.39820 1533 ft 158 kts 84°
2026-05-04 16:08 25.78404 -80.36331 958 ft 145 kts 83°
2026-05-04 16:09 25.78503 -80.34155 583 ft 142 kts 83°
2026-05-04 16:09 25.78589 -80.31989 226 ft 138 kts 85°
2026-05-04 16:10 25.78672 -80.30015 18 ft 92 kts 88°
2026-05-04 16:11 25.78758 -80.29198 21 ft 18 kts 46°
2026-05-04 16:11 25.78820 -80.29076 20 ft 19 kts 82°
2026-05-04 16:12 25.78873 -80.28655 19 ft 21 kts 88°
2026-05-04 16:12 25.78969 -80.28230 24 ft 16 kts 50°
2026-05-04 16:13 25.79098 -80.28063 26 ft 14 kts 30°
2026-05-04 16:13 25.79182 -80.28097 28 ft 5 kts 299°
2026-05-04 16:14 25.79190 -80.28114 28 ft 0 kts 298°